,,,PA_Meas_PMT16A,,PR_Meas_QMR101_102,,RH_Meas_QMH101,,SR_Meas_QMS101,,TA_Meas_QMH101,,GenWind,,GenWind,
date,time,status,PA,status,PR,status,RH,status,SR,status,TA,status,DirAvg,status,SpdAvg,
2011-11-23, 00:00:04,VALID,998.453,VALID,0,VALID,90.9298,VALID,0,VALID,24.8722,VALID,283,VALID,0.0761719,
2011-11-23, 00:01:04,VALID,998.406,VALID,0,VALID,91.029,VALID,0,VALID,24.8527,VALID,249,VALID,0.676953,
2011-11-23, 00:02:04,VALID,998.411,VALID,0,VALID,91.0595,VALID,0,VALID,24.8722,VALID,237,VALID,0.805078,
2011-11-23, 00:03:04,VALID,998.377,VALID,0,VALID,90.9374,VALID,0,VALID,24.8917,VALID,218,VALID,1.0707,
2011-11-23, 00:04:04,VALID,998.365,VALID,0,VALID,90.7849,VALID,0,VALID,24.9308,VALID,218,VALID,1.01797,
2011-11-23, 00:05:04,VALID,998.347,VALID,0,VALID,90.6246,VALID,0,VALID,24.9698,VALID,218,VALID,0.901953,
2011-11-23, 00:06:04,VALID,998.322,VALID,0,VALID,90.5941,VALID,0,VALID,24.9893,VALID,218,VALID,0.585156,
2011-11-23, 00:07:04,VALID,998.305,VALID,0,VALID,90.4873,VALID,0,VALID,24.9698,VALID,218,VALID,0.694531,
2011-11-23, 00:08:04,VALID,998.28,VALID,0,VALID,90.3652,VALID,0,VALID,24.9893,VALID,238,VALID,0.792969,
2011-11-23, 00:09:04,VALID,998.282,VALID,0,VALID,90.2813,VALID,0,VALID,25.0088,VALID,238,VALID,0.436328,
2011-11-23, 00:10:04,VALID,998.268,VALID,0,VALID,90.3576,VALID,0,VALID,25.0303,VALID,238,VALID,0.283594,
2011-11-23, 00:11:04,VALID,998.263,VALID,0,VALID,90.6399,VALID,0,VALID,24.9893,VALID,238,VALID,0.245312,
2011-11-23, 00:12:04,VALID,998.246,VALID,0,VALID,90.7696,VALID,0,VALID,24.9698,VALID,238,VALID,0,
2011-11-23, 00:13:04,VALID,998.222,VALID,0,VALID,90.884,VALID,0,VALID,24.9503,VALID,238,VALID,0.00351562,
2011-11-23, 00:14:04,VALID,998.21,VALID,0,VALID,90.9909,VALID,0,VALID,24.9503,VALID,238,VALID,0,
2011-11-23, 00:15:04,VALID,998.217,VALID,0,VALID,91.1206,VALID,0,VALID,24.9308,VALID,238,VALID,0.0128906,
2011-11-23, 00:16:04,VALID,998.192,VALID,0,VALID,91.1968,VALID,0,VALID,24.8917,VALID,238,VALID,0.431641,
2011-11-23, 00:17:04,VALID,998.188,VALID,0,VALID,91.2808,VALID,0,VALID,24.8722,VALID,238,VALID,0.469531,
2011-11-23, 00:18:04,VALID,998.158,VALID,0,VALID,91.2655,VALID,0,VALID,24.8527,VALID,237,VALID,0.584766,
2011-11-23, 00:19:04,VALID,998.151,VALID,0,VALID,91.2045,VALID,0,VALID,24.8722,VALID,82,VALID,0.8625,
2011-11-23, 00:20:04,VALID,998.142,VALID,0,VALID,91.09,VALID,0,VALID,24.8527,VALID,79,VALID,1.08008,
2011-11-23, 00:21:04,VALID,998.137,VALID,0,VALID,91.09,VALID,0,VALID,24.8332,VALID,75,VALID,0.931641,
2011-11-23, 00:22:04,VALID,998.102,VALID,0,VALID,91.1434,VALID,0,VALID,24.8136,VALID,75,VALID,0.883984,
2011-11-23, 00:23:04,VALID,998.094,VALID,0,VALID,91.2121,VALID,0,VALID,24.8136,VALID,64,VALID,1.08477,
2011-11-23, 00:24:04,VALID,998.074,VALID,0,VALID,91.3494,VALID,0,VALID,24.7941,VALID,64,VALID,0.791016,
2011-11-23, 00:25:04,VALID,998.09,VALID,0,VALID,91.4715,VALID,0,VALID,24.7746,VALID,64,VALID,0.545313,
2011-11-23, 00:26:04,VALID,998.123,VALID,0,VALID,91.5707,VALID,0,VALID,24.7551,VALID,64,VALID,0.448828,
2011-11-23, 00:27:04,VALID,998.121,VALID,0,VALID,91.6623,VALID,0,VALID,24.7551,VALID,64,VALID,0.354297,
2011-11-23, 00:28:04,VALID,998.123,VALID,0,VALID,91.7843,VALID,0,VALID,24.716,VALID,64,VALID,0.341406,
2011-11-23, 00:29:04,VALID,998.096,VALID,0,VALID,91.8759,VALID,0,VALID,24.7179,VALID,64,VALID,0.35625,
2011-11-23, 00:30:04,VALID,998.12,VALID,0,VALID,92.0056,VALID,0,VALID,24.677,VALID,64,VALID,0.482031,
2011-11-23, 00:31:04,VALID,998.094,VALID,0,VALID,92.0971,VALID,0,VALID,24.677,VALID,64,VALID,0.56875,
2011-11-23, 00:32:04,VALID,998.119,VALID,0,VALID,92.1658,VALID,0,VALID,24.6575,VALID,47,VALID,0.698438,
2011-11-23, 00:33:04,VALID,998.097,VALID,0,VALID,92.2192,VALID,0,VALID,24.638,VALID,22,VALID,0.825391,
2011-11-23, 00:34:04,VALID,998.114,VALID,0,VALID,92.265,VALID,0,VALID,24.638,VALID,9,VALID,0.916016,
2011-11-23, 00:35:04,VALID,998.092,VALID,0,VALID,92.3413,VALID,0,VALID,24.6166,VALID,6,VALID,0.882031,
2011-11-23, 00:36:04,VALID,998.072,VALID,0,VALID,92.4176,VALID,0,VALID,24.638,VALID,6,VALID,0.569531,
2011-11-23, 00:37:04,VALID,998.06,VALID,0,VALID,92.4557,VALID,0,VALID,24.638,VALID,6,VALID,0.528906,
2011-11-23, 00:38:04,VALID,998.025,VALID,0,VALID,92.4939,VALID,0,VALID,24.638,VALID,6,VALID,0.331641,
2011-11-23, 00:39:04,VALID,998.017,VALID,0,VALID,92.5473,VALID,0,VALID,24.6166,VALID,6,VALID,0.0210938,
2011-11-23, 00:40:04,VALID,998.02,VALID,0,VALID,92.6083,VALID,0,VALID,24.6184,VALID,6,VALID,0.059375,
2011-11-23, 00:41:04,VALID,997.998,VALID,0,VALID,92.6617,VALID,0,VALID,24.5971,VALID,6,VALID,0.201562,
2011-11-23, 00:42:04,VALID,998.056,VALID,0,VALID,92.6923,VALID,0,VALID,24.5775,VALID,6,VALID,0.678125,
2011-11-23, 00:43:04,VALID,998.067,VALID,0,VALID,92.7075,VALID,0,VALID,24.5794,VALID,20,VALID,0.658984,
2011-11-23, 00:44:04,VALID,998.094,VALID,0,VALID,92.738,VALID,0,VALID,24.519,VALID,20,VALID,0.530859,
2011-11-23, 00:45:04,VALID,998.107,VALID,0,VALID,92.7914,VALID,0.104696,VALID,24.519,VALID,20,VALID,0.1625,
2011-11-23, 00:46:04,VALID,998.159,VALID,0,VALID,92.8067,VALID,0,VALID,24.519,VALID,20,VALID,0.136328,
2011-11-23, 00:47:04,VALID,998.161,VALID,0,VALID,92.8525,VALID,0,VALID,24.4995,VALID,29,VALID,0.575391,
2011-11-23, 00:48:04,VALID,998.137,VALID,0,VALID,92.9211,VALID,0,VALID,24.519,VALID,36,VALID,0.513672,
2011-11-23, 00:49:04,VALID,998.126,VALID,0,VALID,92.9669,VALID,0,VALID,24.4995,VALID,38,VALID,0.748438,
2011-11-23, 00:50:04,VALID,998.129,VALID,0,VALID,93.0737,VALID,0,VALID,24.5404,VALID,38,VALID,0.7125,
2011-11-23, 00:51:04,VALID,998.111,VALID,0,VALID,93.1043,VALID,0,VALID,24.5404,VALID,38,VALID,0.508594,
2011-11-23, 00:52:04,VALID,998.068,VALID,0,VALID,93.1577,VALID,0,VALID,24.519,VALID,39,VALID,0.620313,
2011-11-23, 00:53:04,VALID,998.061,VALID,0,VALID,93.2187,VALID,0,VALID,24.519,VALID,42,VALID,0.635156,
2011-11-23, 00:54:04,VALID,998.026,VALID,0,VALID,93.2721,VALID,0,VALID,24.5404,VALID,42,VALID,0.252344,
2011-11-23, 00:55:04,VALID,998.001,VALID,0,VALID,93.3179,VALID,0,VALID,24.5385,VALID,42,VALID,0.165625,
2011-11-23, 00:56:04,VALID,997.994,VALID,0,VALID,93.3637,VALID,0,VALID,24.5385,VALID,42,VALID,0.0726563,
2011-11-23, 00:57:04,VALID,997.955,VALID,0,VALID,93.3942,VALID,0,VALID,24.5599,VALID,42,VALID,0.163281,
2011-11-23, 00:58:04,VALID,997.917,VALID,0,VALID,93.4247,VALID,0,VALID,24.558,VALID,42,VALID,0,
2011-11-23, 00:59:04,VALID,997.893,VALID,0,VALID,93.4628,VALID,0,VALID,24.558,VALID,42,VALID,0,
2011-11-23, 01:00:04,VALID,997.843,VALID,0,VALID,93.4705,VALID,0,VALID,24.558,VALID,42,VALID,0.0304688,
2011-11-23, 01:01:04,VALID,997.816,VALID,0,VALID,93.5163,VALID,0,VALID,24.558,VALID,42,VALID,0,
2011-11-23, 01:02:04,VALID,997.759,VALID,0,VALID,93.5391,VALID,0,VALID,24.5794,VALID,42,VALID,0,
2011-11-23, 01:03:04,VALID,997.768,VALID,0,VALID,93.562,VALID,0,VALID,24.558,VALID,42,VALID,0,
2011-11-23, 01:04:04,VALID,997.738,VALID,0,VALID,93.5697,VALID,0,VALID,24.558,VALID,42,VALID,0,
2011-11-23, 01:05:04,VALID,997.764,VALID,0,VALID,93.6231,VALID,0,VALID,24.5385,VALID,42,VALID,0,
2011-11-23, 01:06:04,VALID,997.756,VALID,0,VALID,93.6078,VALID,0,VALID,24.5385,VALID,42,VALID,0.0652344,
2011-11-23, 01:07:04,VALID,997.732,VALID,0,VALID,93.6078,VALID,0,VALID,24.5599,VALID,42,VALID,0.235547,
2011-11-23, 01:08:04,VALID,997.72,VALID,0,VALID,93.6231,VALID,0,VALID,24.5599,VALID,42,VALID,0.202734,
2011-11-23, 01:09:04,VALID,997.711,VALID,0,VALID,93.6536,VALID,0.104696,VALID,24.5562,VALID,42,VALID,0,
2011-11-23, 01:10:04,VALID,997.737,VALID,0,VALID,93.6841,VALID,0.104696,VALID,24.5562,VALID,42,VALID,0,
2011-11-23, 01:11:04,VALID,997.732,VALID,0,VALID,93.6765,VALID,0.104696,VALID,24.5971,VALID,42,VALID,0,
2011-11-23, 01:12:04,VALID,997.728,VALID,0,VALID,93.6917,VALID,0.104696,VALID,24.5562,VALID,42,VALID,0,
2011-11-23, 01:13:04,VALID,997.715,VALID,0,VALID,93.6917,VALID,0.104696,VALID,24.5562,VALID,42,VALID,0,
2011-11-23, 01:14:04,VALID,997.735,VALID,0,VALID,93.7146,VALID,0,VALID,24.5775,VALID,42,VALID,0.405859,
2011-11-23, 01:15:04,VALID,997.732,VALID,0,VALID,93.7299,VALID,0,VALID,24.5562,VALID,42,VALID,0.488672,
2011-11-23, 01:16:04,VALID,997.715,VALID,0,VALID,93.7375,VALID,0,VALID,24.5775,VALID,42,VALID,0.707422,
2011-11-23, 01:17:04,VALID,997.719,VALID,0,VALID,93.7299,VALID,0.104696,VALID,24.558,VALID,52,VALID,0.802344,
2011-11-23, 01:18:04,VALID,997.714,VALID,0,VALID,93.7451,VALID,0,VALID,24.5404,VALID,52,VALID,0.771094,
2011-11-23, 01:19:04,VALID,997.695,VALID,0,VALID,93.7375,VALID,0,VALID,24.5385,VALID,68,VALID,0.591797,
2011-11-23, 01:20:04,VALID,997.704,VALID,0,VALID,93.7299,VALID,0,VALID,24.5599,VALID,68,VALID,0.353906,
2011-11-23, 01:21:04,VALID,997.667,VALID,0,VALID,93.7146,VALID,0,VALID,24.5385,VALID,68,VALID,0.578906,
2011-11-23, 01:22:04,VALID,997.66,VALID,0,VALID,93.7146,VALID,0,VALID,24.5385,VALID,68,VALID,0.555469,
2011-11-23, 01:23:04,VALID,997.617,VALID,0,VALID,93.7223,VALID,0,VALID,24.5794,VALID,68,VALID,0.330859,
2011-11-23, 01:24:04,VALID,997.565,VALID,0,VALID,93.7146,VALID,0,VALID,24.5599,VALID,68,VALID,0.0519531,
2011-11-23, 01:25:04,VALID,997.51,VALID,0,VALID,93.6994,VALID,0,VALID,24.5599,VALID,106,VALID,0.60625,
2011-11-23, 01:26:04,VALID,997.444,VALID,0,VALID,93.6917,VALID,0,VALID,24.5794,VALID,177,VALID,1.25312,
2011-11-23, 01:27:04,VALID,997.386,VALID,0,VALID,93.707,VALID,0,VALID,24.5775,VALID,178,VALID,1.23516,
2011-11-23, 01:28:04,VALID,997.301,VALID,0,VALID,93.7146,VALID,0,VALID,24.6184,VALID,181,VALID,1.29219,
2011-11-23, 01:29:04,VALID,997.216,VALID,0,VALID,93.707,VALID,0,VALID,24.638,VALID,187,VALID,1.225,
2011-11-23, 01:30:04,VALID,997.174,VALID,0,VALID,93.6994,VALID,0,VALID,24.638,VALID,186,VALID,1.0625,
2011-11-23, 01:31:04,VALID,997.116,VALID,0,VALID,93.6688,VALID,0,VALID,24.638,VALID,186,VALID,0.826563,
2011-11-23, 01:32:04,VALID,997.045,VALID,0,VALID,93.6536,VALID,0,VALID,24.6575,VALID,186,VALID,0.867578,
2011-11-23, 01:33:04,VALID,997.019,VALID,0,VALID,93.646,VALID,0,VALID,24.6789,VALID,186,VALID,0.387109,
2011-11-23, 01:34:04,VALID,996.953,VALID,0,VALID,93.6154,VALID,0,VALID,24.6575,VALID,186,VALID,0.465234,
2011-11-23, 01:35:04,VALID,996.952,VALID,0,VALID,93.6154,VALID,0,VALID,24.6575,VALID,186,VALID,0.413672,
2011-11-23, 01:36:04,VALID,996.944,VALID,0,VALID,93.5926,VALID,0,VALID,24.677,VALID,186,VALID,0.46875,
2011-11-23, 01:37:04,VALID,997.003,VALID,0,VALID,93.5849,VALID,0,VALID,24.677,VALID,186,VALID,0.780469,
2011-11-23, 01:38:04,VALID,997.043,VALID,0,VALID,93.5697,VALID,0,VALID,24.677,VALID,175,VALID,0.984766,
2011-11-23, 01:39:04,VALID,997.095,VALID,0,VALID,93.5773,VALID,0,VALID,24.6965,VALID,176,VALID,1.35195,
2011-11-23, 01:40:04,VALID,997.126,VALID,0,VALID,93.5849,VALID,0,VALID,24.677,VALID,167,VALID,1.18828,
2011-11-23, 01:41:04,VALID,997.162,VALID,0,VALID,93.5544,VALID,0,VALID,24.677,VALID,169,VALID,0.930469,
2011-11-23, 01:42:04,VALID,997.155,VALID,0,VALID,93.5239,VALID,0,VALID,24.6965,VALID,176,VALID,0.907422,
2011-11-23, 01:43:04,VALID,997.193,VALID,0,VALID,93.5086,VALID,0,VALID,24.6984,VALID,163,VALID,0.841406,
2011-11-23, 01:44:04,VALID,997.185,VALID,0,VALID,93.4628,VALID,0,VALID,24.677,VALID,154,VALID,0.611328,
2011-11-23, 01:45:04,VALID,997.17,VALID,0,VALID,93.4018,VALID,0,VALID,24.677,VALID,137,VALID,0.670313,
2011-11-23, 01:46:04,VALID,997.144,VALID,0,VALID,93.3866,VALID,0,VALID,24.6575,VALID,95,VALID,0.807422,
2011-11-23, 01:47:04,VALID,997.146,VALID,0,VALID,93.3331,VALID,0,VALID,24.638,VALID,77,VALID,0.926562,
2011-11-23, 01:48:04,VALID,997.147,VALID,0,VALID,93.3103,VALID,0,VALID,24.6184,VALID,64,VALID,1.10547,
2011-11-23, 01:49:04,VALID,997.112,VALID,0,VALID,93.2568,VALID,0,VALID,24.5989,VALID,56,VALID,1.13242,
2011-11-23, 01:50:04,VALID,997.116,VALID,0,VALID,93.2416,VALID,0,VALID,24.5599,VALID,51,VALID,1.41875,
2011-11-23, 01:51:04,VALID,997.102,VALID,0,VALID,93.2416,VALID,0,VALID,24.4995,VALID,42,VALID,1.13711,
2011-11-23, 01:52:04,VALID,997.057,VALID,0,VALID,93.2721,VALID,0,VALID,24.4818,VALID,39,VALID,1.34687,
2011-11-23, 01:53:04,VALID,997.023,VALID,0,VALID,93.3103,VALID,0,VALID,24.4623,VALID,31,VALID,1.0625,
2011-11-23, 01:54:04,VALID,997.029,VALID,0,VALID,93.3484,VALID,0,VALID,24.4233,VALID,31,VALID,1.07969,
2011-11-23, 01:55:04,VALID,996.973,VALID,0,VALID,93.4018,VALID,0,VALID,24.4037,VALID,31,VALID,1.04492,
2011-11-23, 01:56:04,VALID,996.942,VALID,0,VALID,93.4094,VALID,0,VALID,24.3452,VALID,30,VALID,1.01523,
2011-11-23, 01:57:04,VALID,996.946,VALID,0,VALID,93.4857,VALID,0,VALID,24.3452,VALID,23,VALID,0.948828,
2011-11-23, 01:58:04,VALID,996.936,VALID,0,VALID,93.5239,VALID,0,VALID,24.2848,VALID,23,VALID,0.890625,
2011-11-23, 01:59:04,VALID,996.884,VALID,0,VALID,93.5468,VALID,0,VALID,24.3062,VALID,23,VALID,0.682813,
2011-11-23, 02:00:04,VALID,996.855,VALID,0,VALID,93.6078,VALID,0,VALID,24.2653,VALID,23,VALID,0.786719,
2011-11-23, 02:01:04,VALID,996.832,VALID,0,VALID,93.6231,VALID,0,VALID,24.2653,VALID,23,VALID,0.642578,
2011-11-23, 02:02:04,VALID,996.828,VALID,0,VALID,93.6765,VALID,0,VALID,24.2653,VALID,20,VALID,0.725,
2011-11-23, 02:03:04,VALID,996.786,VALID,0,VALID,93.707,VALID,0,VALID,24.2653,VALID,20,VALID,0.747656,
2011-11-23, 02:04:04,VALID,996.774,VALID,0,VALID,93.7528,VALID,0,VALID,24.3257,VALID,3,VALID,0.706641,
2011-11-23, 02:05:04,VALID,996.784,VALID,0,VALID,93.7909,VALID,0,VALID,24.3452,VALID,353,VALID,0.675391,
2011-11-23, 02:06:04,VALID,996.739,VALID,0,VALID,93.8138,VALID,0,VALID,24.3452,VALID,349,VALID,0.639063,
2011-11-23, 02:07:04,VALID,996.739,VALID,0,VALID,93.8291,VALID,0,VALID,24.3647,VALID,349,VALID,0.561328,
2011-11-23, 02:08:04,VALID,996.726,VALID,0,VALID,93.852,VALID,0,VALID,24.3647,VALID,349,VALID,0.391406,
2011-11-23, 02:09:04,VALID,996.677,VALID,0,VALID,93.8825,VALID,0,VALID,24.3629,VALID,349,VALID,0.261328,
2011-11-23, 02:10:04,VALID,996.674,VALID,0,VALID,93.8825,VALID,0,VALID,24.3647,VALID,349,VALID,0.137891,
2011-11-23, 02:11:04,VALID,996.649,VALID,0,VALID,93.9206,VALID,0,VALID,24.3452,VALID,349,VALID,0.00664063,
2011-11-23, 02:12:04,VALID,996.606,VALID,0,VALID,93.9206,VALID,0,VALID,24.3452,VALID,349,VALID,0,
2011-11-23, 02:13:04,VALID,996.625,VALID,0,VALID,93.9206,VALID,0,VALID,24.3452,VALID,349,VALID,0.025,
2011-11-23, 02:14:04,VALID,996.579,VALID,0,VALID,93.9359,VALID,0,VALID,24.3452,VALID,349,VALID,0.394141,
2011-11-23, 02:15:04,VALID,996.582,VALID,0,VALID,93.9359,VALID,0,VALID,24.3647,VALID,349,VALID,0.533203,
2011-11-23, 02:16:04,VALID,996.583,VALID,0,VALID,93.9588,VALID,0,VALID,24.3647,VALID,349,VALID,0.397266,
2011-11-23, 02:17:04,VALID,996.537,VALID,0,VALID,93.9511,VALID,0,VALID,24.3452,VALID,349,VALID,0.28125,
2011-11-23, 02:18:04,VALID,996.543,VALID,0,VALID,93.9664,VALID,0,VALID,24.3452,VALID,349,VALID,0.256641,
2011-11-23, 02:19:04,VALID,996.575,VALID,0,VALID,93.9817,VALID,0,VALID,24.347,VALID,349,VALID,0,
2011-11-23, 02:20:04,VALID,996.564,VALID,0,VALID,93.9893,VALID,0,VALID,24.3257,VALID,349,VALID,0,
2011-11-23, 02:21:04,VALID,996.585,VALID,0,VALID,94.0198,VALID,0,VALID,24.3062,VALID,349,VALID,0,
2011-11-23, 02:22:04,VALID,996.606,VALID,0,VALID,94.0351,VALID,0,VALID,24.3062,VALID,349,VALID,0,
2011-11-23, 02:23:04,VALID,996.628,VALID,0,VALID,94.0045,VALID,0,VALID,24.3062,VALID,349,VALID,0,
2011-11-23, 02:24:04,VALID,996.657,VALID,0,VALID,94.0274,VALID,0,VALID,24.3238,VALID,349,VALID,0,
2011-11-23, 02:25:04,VALID,996.722,VALID,0,VALID,94.0198,VALID,0,VALID,24.3043,VALID,349,VALID,0,
2011-11-23, 02:26:04,VALID,996.794,VALID,0,VALID,94.0274,VALID,0.104696,VALID,24.3043,VALID,349,VALID,0,
2011-11-23, 02:27:04,VALID,996.87,VALID,0,VALID,94.0503,VALID,0,VALID,24.2848,VALID,349,VALID,0.575,
2011-11-23, 02:28:04,VALID,996.883,VALID,0,VALID,94.058,VALID,0,VALID,24.2848,VALID,354,VALID,0.889844,
2011-11-23, 02:29:04,VALID,996.966,VALID,0,VALID,94.058,VALID,0,VALID,24.2848,VALID,358,VALID,1.07383,
2011-11-23, 02:30:04,VALID,996.977,VALID,0,VALID,94.0656,VALID,0,VALID,24.2458,VALID,4,VALID,1.11836,
2011-11-23, 02:31:04,VALID,996.974,VALID,0,VALID,94.058,VALID,0,VALID,24.2067,VALID,14,VALID,1.08008,
2011-11-23, 02:32:04,VALID,996.992,VALID,0,VALID,94.058,VALID,0.104696,VALID,24.1872,VALID,20,VALID,1.02734,
2011-11-23, 02:33:04,VALID,996.985,VALID,0,VALID,94.0732,VALID,0,VALID,24.1872,VALID,20,VALID,1.00703,
2011-11-23, 02:34:04,VALID,996.952,VALID,0,VALID,94.0961,VALID,0,VALID,24.2067,VALID,23,VALID,0.74375,
2011-11-23, 02:35:04,VALID,996.925,VALID,0,VALID,94.1037,VALID,0,VALID,24.1872,VALID,23,VALID,0.492578,
2011-11-23, 02:36:04,VALID,996.899,VALID,0,VALID,94.1037,VALID,0,VALID,24.1677,VALID,22,VALID,0.275,
2011-11-23, 02:37:04,VALID,996.909,VALID,0,VALID,94.1114,VALID,0,VALID,24.1482,VALID,23,VALID,0.301172,
2011-11-23, 02:38:04,VALID,996.901,VALID,0,VALID,94.1037,VALID,0.104696,VALID,24.1482,VALID,22,VALID,0.225391,
2011-11-23, 02:39:04,VALID,996.875,VALID,0,VALID,94.1114,VALID,0,VALID,24.1092,VALID,23,VALID,0.00585938,
2011-11-23, 02:40:04,VALID,996.898,VALID,0,VALID,94.1266,VALID,0,VALID,24.1305,VALID,22,VALID,0,
2011-11-23, 02:41:04,VALID,996.912,VALID,0,VALID,94.1266,VALID,0,VALID,24.111,VALID,23,VALID,0.548437,
2011-11-23, 02:42:04,VALID,996.879,VALID,0,VALID,94.1114,VALID,0,VALID,24.1305,VALID,23,VALID,0.396484,
2011-11-23, 02:43:04,VALID,996.889,VALID,0,VALID,94.1419,VALID,0,VALID,24.111,VALID,23,VALID,0.356641,
2011-11-23, 02:44:04,VALID,996.897,VALID,0,VALID,94.1343,VALID,0,VALID,24.0897,VALID,23,VALID,0.28125,
2011-11-23, 02:45:04,VALID,996.925,VALID,0,VALID,94.1343,VALID,0,VALID,24.1092,VALID,23,VALID,0.270312,
2011-11-23, 02:46:04,VALID,996.931,VALID,0,VALID,94.1343,VALID,0,VALID,24.1305,VALID,23,VALID,0.237109,
2011-11-23, 02:47:04,VALID,996.983,VALID,0,VALID,94.1571,VALID,0,VALID,24.15,VALID,23,VALID,0,
2011-11-23, 02:48:04,VALID,996.971,VALID,0,VALID,94.1648,VALID,0,VALID,24.1482,VALID,23,VALID,0,
2011-11-23, 02:49:04,VALID,997.007,VALID,0,VALID,94.1495,VALID,0,VALID,24.1696,VALID,23,VALID,0,
2011-11-23, 02:50:04,VALID,997.015,VALID,0,VALID,94.1648,VALID,0,VALID,24.1696,VALID,23,VALID,0.580078,
2011-11-23, 02:51:04,VALID,997.045,VALID,0,VALID,94.1724,VALID,0,VALID,24.1696,VALID,23,VALID,0.777344,
2011-11-23, 02:52:04,VALID,997.089,VALID,0,VALID,94.1648,VALID,0,VALID,24.1696,VALID,23,VALID,0.843359,
2011-11-23, 02:53:04,VALID,997.117,VALID,0,VALID,94.18,VALID,0,VALID,24.15,VALID,29,VALID,1.00156,
2011-11-23, 02:54:04,VALID,997.147,VALID,0,VALID,94.1571,VALID,0,VALID,24.1677,VALID,38,VALID,1.075,
2011-11-23, 02:55:04,VALID,997.169,VALID,0,VALID,94.1877,VALID,0,VALID,24.1659,VALID,41,VALID,1.32852,
2011-11-23, 02:56:04,VALID,997.196,VALID,0,VALID,94.18,VALID,0.104696,VALID,24.1677,VALID,43,VALID,1.48047,
2011-11-23, 02:57:04,VALID,997.212,VALID,0,VALID,94.18,VALID,0,VALID,24.1872,VALID,40,VALID,1.34883,
2011-11-23, 02:58:04,VALID,997.248,VALID,0,VALID,94.1877,VALID,0,VALID,24.1872,VALID,40,VALID,1.26484,
2011-11-23, 02:59:04,VALID,997.243,VALID,0,VALID,94.1877,VALID,0.104696,VALID,24.1872,VALID,38,VALID,1.03242,
2011-11-23, 03:00:04,VALID,997.298,VALID,0,VALID,94.1724,VALID,0.104696,VALID,24.1677,VALID,35,VALID,1.13281,
2011-11-23, 03:01:04,VALID,997.303,VALID,0,VALID,94.1724,VALID,0,VALID,24.1677,VALID,36,VALID,1.01719,
2011-11-23, 03:02:04,VALID,997.281,VALID,0,VALID,94.18,VALID,0,VALID,24.1677,VALID,45,VALID,1.0875,
2011-11-23, 03:03:04,VALID,997.278,VALID,0,VALID,94.1724,VALID,0.104696,VALID,24.1677,VALID,56,VALID,1.23242,
2011-11-23, 03:04:04,VALID,997.271,VALID,0,VALID,94.18,VALID,0.104696,VALID,24.1677,VALID,66,VALID,1.19687,
2011-11-23, 03:05:04,VALID,997.254,VALID,0,VALID,94.1648,VALID,0.104696,VALID,24.1872,VALID,76,VALID,1.61445,
2011-11-23, 03:06:04,VALID,997.286,VALID,0,VALID,94.1724,VALID,0.104696,VALID,24.1677,VALID,71,VALID,1.43945,
2011-11-23, 03:07:04,VALID,997.252,VALID,0,VALID,94.18,VALID,0,VALID,24.1677,VALID,70,VALID,1.43203,
2011-11-23, 03:08:04,VALID,997.259,VALID,0,VALID,94.18,VALID,0.104696,VALID,24.1464,VALID,64,VALID,1.51875,
2011-11-23, 03:09:04,VALID,997.291,VALID,0,VALID,94.1953,VALID,0,VALID,24.1696,VALID,73,VALID,1.35469,
2011-11-23, 03:10:04,VALID,997.312,VALID,0,VALID,94.1724,VALID,0,VALID,24.1696,VALID,67,VALID,1.53555,
2011-11-23, 03:11:04,VALID,997.342,VALID,0,VALID,94.1877,VALID,0,VALID,24.1696,VALID,65,VALID,1.39492,
2011-11-23, 03:12:04,VALID,997.403,VALID,0,VALID,94.18,VALID,0,VALID,24.1482,VALID,63,VALID,1.33359,
2011-11-23, 03:13:04,VALID,997.434,VALID,0,VALID,94.18,VALID,0,VALID,24.15,VALID,68,VALID,1.38086,
2011-11-23, 03:14:04,VALID,997.449,VALID,0,VALID,94.1724,VALID,0,VALID,24.15,VALID,64,VALID,2.26563,
2011-11-23, 03:15:04,VALID,997.483,VALID,0,VALID,94.18,VALID,0,VALID,24.1696,VALID,69,VALID,1.68867,
2011-11-23, 03:16:04,VALID,997.48,VALID,0,VALID,94.1648,VALID,0,VALID,24.1891,VALID,63,VALID,1.4293,
2011-11-23, 03:17:04,VALID,997.427,VALID,0,VALID,94.1495,VALID,0,VALID,24.1872,VALID,75,VALID,1.20078,
2011-11-23, 03:18:04,VALID,997.386,VALID,0,VALID,94.1419,VALID,0,VALID,24.1872,VALID,75,VALID,1.24414,
2011-11-23, 03:19:04,VALID,997.345,VALID,0,VALID,94.1495,VALID,0,VALID,24.2067,VALID,78,VALID,0.508984,
2011-11-23, 03:20:04,VALID,997.29,VALID,0,VALID,94.1495,VALID,0,VALID,24.2281,VALID,78,VALID,0.132422,
2011-11-23, 03:21:04,VALID,997.278,VALID,0,VALID,94.1495,VALID,0,VALID,24.2281,VALID,78,VALID,0.00195313,
2011-11-23, 03:22:04,VALID,997.269,VALID,0,VALID,94.1343,VALID,0,VALID,24.2281,VALID,78,VALID,0.00078125,
2011-11-23, 03:23:04,VALID,997.223,VALID,0,VALID,94.119,VALID,0,VALID,24.2067,VALID,78,VALID,0.596094,
2011-11-23, 03:24:04,VALID,997.23,VALID,0,VALID,94.1114,VALID,0,VALID,24.2476,VALID,266,VALID,0.732422,
2011-11-23, 03:25:04,VALID,997.276,VALID,0,VALID,94.0961,VALID,0,VALID,24.2281,VALID,263,VALID,0.604297,
2011-11-23, 03:26:04,VALID,997.28,VALID,0,VALID,94.1266,VALID,0,VALID,24.2281,VALID,264,VALID,0.479297,
2011-11-23, 03:27:04,VALID,997.32,VALID,0,VALID,94.1037,VALID,0,VALID,24.2067,VALID,264,VALID,0.171875,
2011-11-23, 03:28:04,VALID,997.339,VALID,0,VALID,94.1037,VALID,0,VALID,24.2067,VALID,264,VALID,0.246094,
2011-11-23, 03:29:04,VALID,997.311,VALID,0,VALID,94.0656,VALID,0,VALID,24.2086,VALID,264,VALID,0.314063,
2011-11-23, 03:30:04,VALID,997.334,VALID,0,VALID,94.0885,VALID,0,VALID,24.2086,VALID,264,VALID,0.390234,
2011-11-23, 03:31:04,VALID,997.344,VALID,0,VALID,94.0808,VALID,0,VALID,24.1891,VALID,264,VALID,0.379687,
2011-11-23, 03:32:04,VALID,997.334,VALID,0,VALID,94.0885,VALID,0,VALID,24.1696,VALID,264,VALID,0.261719,
2011-11-23, 03:33:04,VALID,997.292,VALID,0,VALID,94.0656,VALID,0,VALID,24.1891,VALID,264,VALID,0.232422,
2011-11-23, 03:34:04,VALID,997.303,VALID,0,VALID,94.0656,VALID,0,VALID,24.1696,VALID,264,VALID,0.278516,
2011-11-23, 03:35:04,VALID,997.29,VALID,0,VALID,94.058,VALID,0,VALID,24.1696,VALID,264,VALID,0.276953,
2011-11-23, 03:36:04,VALID,997.277,VALID,0,VALID,94.058,VALID,0,VALID,24.1696,VALID,264,VALID,0.219141,
2011-11-23, 03:37:04,VALID,997.232,VALID,0,VALID,94.0732,VALID,0,VALID,24.1696,VALID,264,VALID,0,
2011-11-23, 03:38:04,VALID,997.251,VALID,0,VALID,94.0656,VALID,0,VALID,24.15,VALID,264,VALID,0,
2011-11-23, 03:39:04,VALID,997.22,VALID,0,VALID,94.0503,VALID,0,VALID,24.15,VALID,264,VALID,0.329297,
2011-11-23, 03:40:04,VALID,997.237,VALID,0,VALID,94.0656,VALID,0,VALID,24.1287,VALID,264,VALID,0.320703,
2011-11-23, 03:41:04,VALID,997.235,VALID,0,VALID,94.058,VALID,0,VALID,24.15,VALID,264,VALID,0.226563,
2011-11-23, 03:42:04,VALID,997.233,VALID,0,VALID,94.0503,VALID,0,VALID,24.15,VALID,264,VALID,0.426953,
2011-11-23, 03:43:04,VALID,997.219,VALID,0,VALID,94.0732,VALID,0,VALID,24.1287,VALID,262,VALID,0.463281,
2011-11-23, 03:44:04,VALID,997.241,VALID,0,VALID,94.058,VALID,0,VALID,24.15,VALID,262,VALID,0.541797,
2011-11-23, 03:45:04,VALID,997.26,VALID,0,VALID,94.0427,VALID,0,VALID,24.1696,VALID,262,VALID,0.530078,
2011-11-23, 03:46:04,VALID,997.255,VALID,0,VALID,94.058,VALID,0,VALID,24.1677,VALID,262,VALID,0.480859,
2011-11-23, 03:47:04,VALID,997.309,VALID,0,VALID,94.0808,VALID,0,VALID,24.2086,VALID,175,VALID,1.00898,